Location: Broletto
(44.6000°N, 10.5833°E)
Time: 06:38:27
(UTC+00:00)

Meteor 2-15 - Pass Details

Date: 18 April 2021
Orbit: 936 x 956 km, 82.5° (Epoch: 06 May)

Event Time Altitude Azimuth Distance (km) Brightness Sun altitude
Exits shadow 21:09:37 68° 95° (E) 1,005 4.3 -27.3°
Maximum altitude 21:09:37 68° 95° (E) 1,005 4.3 -27.3°
Drops below altitude 10° 21:15:38 10° 14° (NNE) 2,657 7.3 -27.9°
Sets 21:18:08 0° 12° (NNE) 3,606 8.1 -28.1°
